Weather History for Madison, SD

Change the Weather History Date:

Friday, February 7, 2014

  Actual Average Record
Temperature  
Mean Temperature 2 °F -  
Max Temperature 14 °F 23 °F 26 °F (2013)
Min Temperature -9 °F 5 °F -13 °F (2011)
Degree Days  
Heating Degree Days 62    
Moisture  
Dew Point -5 °F    
Average Humidity 79    
Maximum Humidity 100    
Minimum Humidity 66    
Precipitation  
Precipitation 0.00 in - - ()
Sea Level Pressure  
Sea Level Pressure 30.09 in    
Wind  
Wind Speed 11 mph (SW)    
Max Wind Speed 17 mph    
Max Gust Speed 21 mph    
Visibility 10 miles    
Events      
Averages and records for this station are not official NWS values.
T = Trace of Precipitation, MM = Missing Value Source: NWS Daily Summary

Daily Weather History Graph

Daily Weather History Graph

Search for Another Location

Airport:

Trip Planner

Search our weather history database for the weather conditions in past years. The results will help you decide how hot, cold, wet, or windy it might be!

Date:

Astronomy

Feb. 07, 2014 Rise Set
Actual Time 7:38 AM CST 5:47 PM CST
Civil Twilight 7:08 AM CST 6:17 PM CST
Nautical Twilight 6:34 AM CST 6:51 PM CST
Astronomical Twilight 6:00 AM CST 7:25 PM CST
Moon 11:57 AM CST (2/7) 1:57 AM CST (2/7)
Length of Visible Light 11h 09m
Length of Day
10h 08m
First Quarter, 59% of the Moon is Illuminated
Feb 7
First Quarter
Feb 14
Full
Feb 22
Last Quarter
Mar 1
New
Mar 8
First Quarter

Hourly Weather History & Observations

Time (CST) Temp. Windchill Dew Point Humidity Pressure Visibility Wind Dir Wind Speed Gust Speed Precip Events Conditions
12:05 AM -4.0 °F -23.0 °F -11.2 °F 71% 30.20 in 10.0 mi West 12.7 mph 18.4 mph N/A   Clear
12:25 AM -4.0 °F -21.2 °F -11.2 °F 71% 30.20 in 10.0 mi West 10.4 mph - N/A   Clear
12:45 AM -4.0 °F -21.2 °F -11.2 °F 71% 30.19 in 10.0 mi WSW 10.4 mph - N/A   Clear
1:05 AM -5.8 °F -21.2 °F -11.2 °F 77% 30.19 in 10.0 mi WSW 8.1 mph - N/A   Clear
1:25 AM -5.8 °F -23.4 °F -11.2 °F 77% 30.17 in 10.0 mi West 10.4 mph - N/A   Clear
1:45 AM -4.0 °F -23.0 °F -11.2 °F 71% 30.17 in 10.0 mi West 12.7 mph 17.3 mph N/A   Clear
2:05 AM -4.0 °F -22.1 °F -11.2 °F 71% 30.17 in 10.0 mi WSW 11.5 mph - N/A   Clear
2:25 AM -4.0 °F -21.2 °F -11.2 °F 71% 30.17 in 10.0 mi West 10.4 mph - N/A   Clear
2:45 AM -4.0 °F -21.2 °F -11.2 °F 71% 30.16 in 10.0 mi WSW 10.4 mph - N/A   Clear
3:05 AM -7.6 °F -27.5 °F -13.0 °F 77% 30.16 in 10.0 mi WSW 12.7 mph - N/A   Clear
3:25 AM -7.6 °F -26.6 °F -13.0 °F 77% 30.15 in 10.0 mi WSW 11.5 mph - N/A   Clear
3:45 AM -9.4 °F -27.9 °F -13.0 °F 84% 30.14 in 10.0 mi WSW 10.4 mph - N/A   Clear
4:05 AM -9.4 °F -27.9 °F -13.0 °F 84% 30.14 in 10.0 mi WSW 10.4 mph - N/A   Clear
4:25 AM -9.4 °F -28.9 °F -13.0 °F 84% 30.14 in 10.0 mi WSW 11.5 mph - N/A   Clear
4:45 AM -7.6 °F -26.6 °F -13.0 °F 77% 30.14 in 10.0 mi WSW 11.5 mph - N/A   Clear
5:05 AM -7.6 °F -25.7 °F -13.0 °F 77% 30.13 in 10.0 mi WSW 10.4 mph - N/A   Clear
5:25 AM -7.6 °F -25.7 °F -13.0 °F 77% 30.13 in 10.0 mi SW 10.4 mph - N/A   Clear
5:45 AM -9.4 °F -27.9 °F -13.0 °F 84% 30.13 in 10.0 mi WSW 10.4 mph - N/A   Clear
6:05 AM -9.4 °F -26.8 °F -14.8 °F 77% 30.13 in 10.0 mi SW 9.2 mph - N/A   Clear
6:25 AM -9.4 °F -25.6 °F -14.8 °F 77% 30.13 in 10.0 mi SW 8.1 mph - N/A   Clear
6:45 AM -9.4 °F -26.8 °F -14.8 °F 77% 30.13 in 10.0 mi SW 9.2 mph - N/A   Clear
7:05 AM -9.4 °F -26.8 °F -13.0 °F 84% 30.13 in 10.0 mi WSW 9.2 mph - N/A   Clear
7:25 AM -9.4 °F -27.9 °F -13.0 °F 84% 30.13 in 10.0 mi WSW 10.4 mph - N/A   Clear
7:45 AM -9.4 °F -25.6 °F -13.0 °F 84% 30.13 in 10.0 mi WSW 8.1 mph - N/A   Clear
8:05 AM -9.4 °F -26.8 °F -13.0 °F 84% 30.13 in 10.0 mi SW 9.2 mph - N/A   Clear
8:25 AM -7.6 °F -24.6 °F -13.0 °F 77% 30.13 in 10.0 mi SW 9.2 mph - N/A   Clear
8:45 AM -5.8 °F -23.4 °F -11.2 °F 77% 30.13 in 10.0 mi SW 10.4 mph - N/A   Clear
9:05 AM -4.0 °F -20.2 °F -11.2 °F 71% 30.14 in 10.0 mi SW 9.2 mph - N/A   Clear
9:25 AM -4.0 °F -19.0 °F -9.4 °F 78% 30.14 in 10.0 mi SW 8.1 mph - N/A   Clear
9:45 AM -2.2 °F -18.0 °F -9.4 °F 71% 30.14 in 10.0 mi SW 9.2 mph - N/A   Clear
10:05 AM -0.4 °F -14.7 °F -9.4 °F 66% 30.13 in 10.0 mi SW 8.1 mph - N/A   Clear
10:25 AM -0.4 °F -15.7 °F -7.6 °F 72% 30.13 in 10.0 mi SW 9.2 mph - N/A   Clear
10:45 AM -0.4 °F -15.7 °F -7.6 °F 72% 30.13 in 10.0 mi SSW 9.2 mph - N/A   Clear
11:05 AM 1.4 °F -13.5 °F -7.6 °F 66% 30.13 in 10.0 mi SSW 9.2 mph - N/A   Clear
11:25 AM 1.4 °F -13.5 °F -7.6 °F 66% 30.12 in 10.0 mi SW 9.2 mph - N/A   Clear
11:45 AM 3.2 °F -11.3 °F -4.0 °F 72% 30.12 in 10.0 mi SSW 9.2 mph - N/A   Clear
12:05 PM 5.0 °F -9.1 °F -2.2 °F 72% 30.11 in 10.0 mi SSW 9.2 mph - N/A   Clear
12:25 PM 6.8 °F -8.6 °F -0.4 °F 72% 30.10 in 10.0 mi SSW 11.5 mph - N/A   Clear
12:45 PM 6.8 °F -10.0 °F 1.4 °F 79% 30.09 in 10.0 mi SSW 13.8 mph - N/A   Clear
1:05 PM 8.6 °F -6.3 °F 3.2 °F 79% 30.08 in 10.0 mi SW 11.5 mph - N/A   Clear
1:25 PM 8.6 °F -7.0 °F 3.2 °F 79% 30.07 in 10.0 mi SW 12.7 mph - N/A   Clear
1:45 PM 10.4 °F -4.8 °F 5.0 °F 79% 30.06 in 10.0 mi SW 12.7 mph - N/A   Clear
2:05 PM 10.4 °F -5.4 °F 5.0 °F 79% 30.05 in 10.0 mi SSW 13.8 mph - N/A   Clear
2:25 PM 10.4 °F -4.8 °F 5.0 °F 79% 30.05 in 10.0 mi SSW 12.7 mph - N/A   Clear
2:45 PM 10.4 °F -5.4 °F 5.0 °F 79% 30.04 in 10.0 mi SSW 13.8 mph - N/A   Clear
3:05 PM 12.2 °F -4.3 °F 5.0 °F 73% 30.04 in 10.0 mi SSW 16.1 mph - N/A   Clear
3:25 PM 12.2 °F -4.3 °F 5.0 °F 73% 30.03 in 10.0 mi SSW 16.1 mph - N/A   Clear
3:45 PM 12.2 °F -4.8 °F 5.0 °F 73% 30.03 in 10.0 mi SSW 17.3 mph 20.7 mph N/A   Clear
4:05 PM 14.0 °F -0.8 °F 5.0 °F 67% 30.02 in 10.0 mi SW 13.8 mph 18.4 mph N/A   Clear
4:25 PM 14.0 °F 1.2 °F 5.0 °F 67% 30.02 in 10.0 mi SW 10.4 mph - N/A   Clear
4:45 PM 12.2 °F -1.0 °F 5.0 °F 73% 30.02 in 10.0 mi SW 10.4 mph - N/A   Clear
5:05 PM 12.2 °F 0.7 °F 5.0 °F 73% 30.02 in 10.0 mi SSW 8.1 mph - N/A   Clear
5:25 PM 10.4 °F 0.8 °F 3.2 °F 73% 30.02 in 10.0 mi SSW 5.8 mph - N/A   Clear
5:45 PM 10.4 °F 0.8 °F 3.2 °F 73% 30.02 in 10.0 mi South 5.8 mph - N/A   Clear
6:05 PM 8.6 °F -1.3 °F 3.2 °F 79% 30.02 in 10.0 mi South 5.8 mph - N/A   Clear
6:25 PM 6.8 °F -6.9 °F 1.4 °F 79% 30.02 in 10.0 mi South 9.2 mph - N/A   Clear
6:45 PM 6.8 °F -5.9 °F 1.4 °F 79% 30.02 in 10.0 mi South 8.1 mph - N/A   Clear
7:05 PM 5.0 °F -8.1 °F 1.4 °F 85% 30.02 in 10.0 mi South 8.1 mph - N/A   Clear
7:25 PM 5.0 °F -8.1 °F -0.4 °F 78% 30.02 in 10.0 mi South 8.1 mph - N/A   Clear
7:45 PM 5.0 °F -9.1 °F -0.4 °F 78% 30.02 in 10.0 mi South 9.2 mph - N/A   Clear
8:05 PM 3.2 °F -10.3 °F -0.4 °F 85% 30.02 in 10.0 mi South 8.1 mph - N/A   Clear
8:25 PM 1.4 °F -13.5 °F -0.4 °F 92% 30.02 in 10.0 mi South 9.2 mph - N/A   Clear
8:45 PM 1.4 °F -13.5 °F -0.4 °F 92% 30.02 in 10.0 mi South 9.2 mph - N/A   Clear
9:05 PM 1.4 °F -13.5 °F -0.4 °F 92% 30.01 in 10.0 mi South 9.2 mph - N/A   Clear
9:25 PM 1.4 °F -13.5 °F -0.4 °F 92% 30.01 in 10.0 mi South 9.2 mph - N/A   Clear
9:45 PM 3.2 °F -10.3 °F 1.4 °F 92% 30.00 in 10.0 mi South 8.1 mph - N/A   Clear
10:05 PM 1.4 °F -13.5 °F -0.4 °F 92% 30.01 in 10.0 mi South 9.2 mph - N/A   Clear
10:25 PM -0.4 °F -16.7 °F -0.4 °F 100% 30.00 in 10.0 mi South 10.4 mph - N/A   Partly Cloudy
10:45 PM -0.4 °F -15.7 °F -0.4 °F 100% 30.00 in 10.0 mi South 9.2 mph - N/A   Partly Cloudy
11:05 PM 1.4 °F -13.5 °F 1.4 °F 100% 29.99 in 10.0 mi South 9.2 mph - N/A   Clear
11:25 PM -0.4 °F -15.7 °F -2.2 °F 92% 29.99 in 10.0 mi South 9.2 mph - N/A   Clear
11:45 PM -0.4 °F -15.7 °F -0.4 °F 100% 29.99 in 10.0 mi South 9.2 mph - N/A   Clear